Location: Campillo
(40.8621°N, 4.2488°W)
Time: 14:44:40
(UTC+00:00)

Cosmos 2084 - Visible Passes

Search period start: 25 September 2021 00:00
Search period end: 05 October 2021 00:00
Orbit: 531 x 650 km, 62.8° (Epoch: 24 September)

Date Brightness Start Highest point End Pass type
(mag) Time Alt. Az. Time Alt. Az. Time Alt. Az.
25 Sep 4.9 04:46:18 10° S 04:49:54 34° ESE 04:53:35 10° NE visible
26 Sep 3.7 04:54:04 11° SSW 04:57:55 64° ESE 05:01:57 10° NE visible
27 Sep 6.2 03:26:30 10° ESE 03:27:10 10° ESE 03:27:51 10° E visible
27 Sep 3.2 05:02:54 16° SW 05:06:00 70° NW 05:10:05 10° NNE visible
28 Sep 5.6 03:35:00 19° ESE 03:35:01 19° ESE 03:37:56 10° ENE visible
28 Sep 3.9 05:11:35 18° WSW 05:14:12 39° NW 05:18:03 10° NNE visible
29 Sep 4.8 03:43:33 33° E 03:43:33 33° E 03:46:39 10° NE visible
29 Sep 4.6 05:20:07 15° W 05:22:28 24° NW 05:25:51 10° NNE visible
30 Sep 4.3 03:52:00 45° ENE 03:52:00 45° ENE 03:55:00 10° NE visible
30 Sep 5.2 05:28:34 11° WNW 05:30:52 16° NW 05:33:26 10° N visible
01 Oct 4.3 04:00:21 40° NNE 04:00:21 40° NNE 04:03:07 10° NNE visible
01 Oct 5.6 05:38:21 10° NW 05:39:20 11° NNW 05:40:19 10° NNW visible
02 Oct 4.7 04:08:36 29° N 04:08:36 29° N 04:11:05 10° NNE visible
03 Oct 5.2 04:16:48 20° NNW 04:16:48 20° NNW 04:18:52 10° NNE visible
04 Oct 5.5 04:24:56 14° NNW 04:24:56 14° NNW 04:26:25 10° N visible
